GEOEYE 1

Last updated on Fri Oct 04 2024 00:02:25 GMT+0000 (Coordinated Universal Time)

1 33331U 08042A 24277.52368269 .00003808 00000+0 73115-3 0 9998 2 33331 98.1261 348.5090 0005028 198.6581 161.4438 14.64259743859154
UTC large
Height (km)
Speed (km/s)
/
Latitude / Longitude
Inclination (degrees)
Orbital Period (minutes)
Azimuth
Elevation
Range (km)
Doppler Factor

Next 0 passes for location: London (51.5072 / 0.1276)

Sorry there are no passes over London.